When you browse on this site, cookies collect data to enhance your experience and personalize the content and advertising you see.
Visit our Privacy Policy to learn more. By continuing to use the site, you agree to this use of cookies and data.
  • In Hungary
  • List of Countries
  • For 7 days
  • Water Temperature
  • Weather Map
  • News
  • Weather Widgets
  • user-avatar
    Login

    Hourly Weather Oboz

    Today, 15 October, Tuesday

    Time Temperature Precipitation Wind Pressure Humidity
    00:00 +15°C° 0 mm 6 mps 749 mmHg 73%
    01:00 +15°C° 0 mm 6 mps 749 mmHg 73%
    02:00 +14°C° 0 mm 6 mps 749 mmHg 73%
    03:00 +14°C° 0 mm 5 mps 749 mmHg 70%
    04:00 +13°C° 0 mm 5 mps 749 mmHg 72%
    05:00 +13°C° 0 mm 5 mps 749 mmHg 75%
    06:00 +13°C° 0 mm 5 mps 749 mmHg 77%
    07:00 +13°C° 0 mm 5 mps 749 mmHg 78%
    08:00 +13°C° 0 mm 5 mps 749 mmHg 80%
    09:00 +14°C° 0 mm 5 mps 750 mmHg 81%
    10:00 +15°C° 0 mm 5 mps 750 mmHg 75%
    11:00 +16°C° 0 mm 5 mps 751 mmHg 68%
    12:00 +17°C° 0 mm 5 mps 751 mmHg 62%
    13:00 +17°C° 0 mm 5 mps 751 mmHg 62%
    14:00 +18°C° 0 mm 4 mps 752 mmHg 62%
    15:00 +17°C° 0 mm 4 mps 752 mmHg 62%
    16:00 +15°C° 0 mm 4 mps 752 mmHg 67%
    17:00 +14°C° 0 mm 3 mps 753 mmHg 71%
    18:00 +13°C° 0 mm 3 mps 753 mmHg 76%
    19:00 +12°C° 0 mm 3 mps 754 mmHg 77%
    20:00 +12°C° 0 mm 3 mps 755 mmHg 77%
    21:00 +11°C° 0 mm 3 mps 755 mmHg 78%
    22:00 +10°C° 0 mm 3 mps 756 mmHg 79%
    23:00 +9°C° 0 mm 3 mps 756 mmHg 80%

    Tomorrow, 16 October, Wednesday

    Time Temperature Precipitation Wind Pressure Humidity
    00:00 +8°C° 0 mm 3 mps 756 mmHg 81%
    01:00 +8°C° 0 mm 3 mps 757 mmHg 81%
    02:00 +7°C° 0 mm 3 mps 757 mmHg 80%
    03:00 +5°C° 0 mm 3 mps 758 mmHg 79%
    04:00 +5°C° 0 mm 3 mps 758 mmHg 80%
    05:00 +4°C° 0 mm 3 mps 758 mmHg 82%
    06:00 +3°C° 0 mm 3 mps 758 mmHg 83%
    07:00 +4°C° 0 mm 3 mps 759 mmHg 80%
    08:00 +4°C° 0 mm 3 mps 759 mmHg 77%
    09:00 +4°C° 0 mm 3 mps 760 mmHg 74%
    10:00 +5°C° 0 mm 3 mps 760 mmHg 68%
    11:00 +7°C° 0 mm 3 mps 760 mmHg 63%
    12:00 +8°C° 0 mm 2 mps 760 mmHg 57%
    13:00 +9°C° 0 mm 2 mps 759 mmHg 54%
    14:00 +9°C° 0 mm 2 mps 759 mmHg 52%
    15:00 +10°C° 0 mm 2 mps 759 mmHg 49%
    16:00 +9°C° 0 mm 2 mps 759 mmHg 53%
    17:00 +8°C° 0 mm 2 mps 759 mmHg 56%
    18:00 +7°C° 0 mm 2 mps 759 mmHg 60%
    19:00 +7°C° 0 mm 2 mps 758 mmHg 61%
    20:00 +7°C° 0 mm 3 mps 758 mmHg 62%
    21:00 +5°C° 0 mm 3 mps 758 mmHg 63%
    22:00 +5°C° 0 mm 3 mps 758 mmHg 64%
    23:00 +5°C° 0 mm 3 mps 758 mmHg 64%

    Day after tomorrow, 17 October, Thursday

    Time Temperature Precipitation Wind Pressure Humidity
    00:00 +5°C° 0 mm 3 mps 758 mmHg 65%
    01:00 +5°C° 0 mm 3 mps 758 mmHg 68%
    02:00 +5°C° 0 mm 3 mps 758 mmHg 70%
    03:00 +5°C° 0 mm 3 mps 758 mmHg 72%
    04:00 +5°C° 0 mm 3 mps 757 mmHg 74%
    05:00 +5°C° 0 mm 4 mps 757 mmHg 76%
    06:00 +5°C° 0 mm 4 mps 757 mmHg 77%
    07:00 +6°C° 0 mm 4 mps 756 mmHg 77%
    08:00 +7°C° 0 mm 5 mps 756 mmHg 77%
    09:00 +8°C° 0 mm 5 mps 756 mmHg 77%
    10:00 +9°C° 0 mm 5 mps 755 mmHg 74%
    11:00 +12°C° 0 mm 5 mps 755 mmHg 72%
    12:00 +13°C° 0 mm 5 mps 755 mmHg 70%
    13:00 +14°C° 0 mm 5 mps 755 mmHg 69%
    14:00 +15°C° 0 mm 5 mps 754 mmHg 68%
    15:00 +15°C° 0 mm 5 mps 754 mmHg 68%
    16:00 +14°C° 0 mm 4 mps 753 mmHg 73%
    17:00 +13°C° 0 mm 4 mps 753 mmHg 77%
    18:00 +13°C° 0 mm 3 mps 753 mmHg 82%
    19:00 +12°C° 0 mm 3 mps 753 mmHg 84%
    20:00 +12°C° 0 mm 4 mps 753 mmHg 85%
    21:00 +12°C° 0 mm 4 mps 753 mmHg 87%
    22:00 +11°C° 0 mm 3 mps 752 mmHg 88%
    23:00 +11°C° 0 mm 3 mps 752 mmHg 90%

    18 October, Friday

    Time Temperature Precipitation Wind Pressure Humidity
    00:00 +11°C° 0 mm 3 mps 752 mmHg 91%
    01:00 +11°C° 0 mm 3 mps 752 mmHg 92%
    02:00 +10°C° 0 mm 3 mps 752 mmHg 92%
    03:00 +10°C° 0 mm 3 mps 751 mmHg 93%
    04:00 +10°C° 0 mm 3 mps 751 mmHg 93%
    05:00 +10°C° 0 mm 3 mps 751 mmHg 93%
    06:00 +9°C° 0 mm 3 mps 751 mmHg 94%
    07:00 +10°C° 0 mm 3 mps 751 mmHg 90%
    08:00 +11°C° 0 mm 3 mps 751 mmHg 87%
    09:00 +11°C° 0 mm 3 mps 751 mmHg 83%
    10:00 +13°C° 0 mm 3 mps 751 mmHg 77%
    11:00 +14°C° 0 mm 3 mps 751 mmHg 72%
    12:00 +16°C° 0 mm 3 mps 752 mmHg 66%
    13:00 +16°C° 0 mm 3 mps 752 mmHg 66%
    14:00 +16°C° 0 mm 3 mps 752 mmHg 66%
    15:00 +16°C° 0 mm 3 mps 752 mmHg 66%
    16:00 +14°C° 0 mm 3 mps 752 mmHg 70%
    17:00 +13°C° 0 mm 3 mps 752 mmHg 75%
    18:00 +13°C° 0 mm 2 mps 752 mmHg 79%
    19:00 +13°C° 0 mm 2 mps 752 mmHg 79%
    20:00 +13°C° 0 mm 2 mps 753 mmHg 79%
    21:00 +13°C° 0 mm 2 mps 753 mmHg 80%
    22:00 +13°C° 0 mm 2 mps 753 mmHg 80%
    23:00 +12°C° 0 mm 2 mps 753 mmHg 79%

    19 October, Saturday

    Time Temperature Precipitation Wind Pressure Humidity
    00:00 +12°C° 0 mm 1 mps 753 mmHg 79%
    01:00 +12°C° 0 mm 1 mps 753 mmHg 78%
    02:00 +12°C° 0 mm 2 mps 754 mmHg 78%
    03:00 +12°C° 0 mm 2 mps 754 mmHg 77%
    04:00 +12°C° 0 mm 2 mps 754 mmHg 78%
    05:00 +12°C° 0 mm 2 mps 754 mmHg 79%
    06:00 +12°C° 0 mm 2 mps 754 mmHg 81%
    07:00 +12°C° 0 mm 2 mps 755 mmHg 82%
    08:00 +12°C° 0 mm 2 mps 755 mmHg 83%
    09:00 +12°C° 0 mm 2 mps 755 mmHg 84%
    10:00 +13°C° 0 mm 2 mps 755 mmHg 79%
    11:00 +14°C° 0 mm 2 mps 756 mmHg 75%
    12:00 +15°C° 0 mm 2 mps 756 mmHg 71%
    13:00 +15°C° 0 mm 2 mps 756 mmHg 69%
    14:00 +15°C° 0 mm 2 mps 756 mmHg 67%
    15:00 +16°C° 0 mm 2 mps 756 mmHg 64%
    16:00 +15°C° 0 mm 2 mps 756 mmHg 69%
    17:00 +14°C° 0 mm 2 mps 756 mmHg 73%
    18:00 +13°C° 0 mm 2 mps 757 mmHg 78%
    19:00 +13°C° 0 mm 2 mps 757 mmHg 80%
    20:00 +12°C° 0 mm 2 mps 757 mmHg 82%
    21:00 +12°C° 0 mm 2 mps 757 mmHg 84%
    22:00 +10°C° 0 mm 2 mps 758 mmHg 87%
    23:00 +10°C° 0 mm 1 mps 758 mmHg 90%

    20 October, Sunday

    Time Temperature Precipitation Wind Pressure Humidity
    00:00 +10°C° 0 mm 1 mps 758 mmHg 92%
    01:00 +10°C° 0 mm 1 mps 758 mmHg 93%
    02:00 +9°C° 0 mm 1 mps 758 mmHg 93%
    03:00 +9°C° 0 mm 1 mps 758 mmHg 93%
    04:00 +9°C° 0 mm 1 mps 759 mmHg 93%
    05:00 +9°C° 0 mm 1 mps 759 mmHg 93%
    06:00 +7°C° 0 mm 0 mps 759 mmHg 93%
    07:00 +9°C° 0 mm 1 mps 759 mmHg 90%
    08:00 +10°C° 0 mm 1 mps 759 mmHg 87%
    09:00 +10°C° 0 mm 1 mps 759 mmHg 84%
    10:00 +11°C° 0 mm 1 mps 760 mmHg 78%
    11:00 +12°C° 0 mm 1 mps 760 mmHg 73%
    12:00 +13°C° 0 mm 2 mps 760 mmHg 68%
    13:00 +14°C° 0 mm 1 mps 760 mmHg 67%
    14:00 +14°C° 0 mm 1 mps 760 mmHg 66%
    15:00 +14°C° 0 mm 1 mps 760 mmHg 65%
    16:00 +13°C° 0 mm 1 mps 760 mmHg 69%
    17:00 +12°C° 0 mm 2 mps 760 mmHg 73%
    18:00 +10°C° 0 mm 2 mps 760 mmHg 78%
    19:00 +10°C° 0 mm 2 mps 760 mmHg 80%
    20:00 +9°C° 0 mm 2 mps 760 mmHg 82%
    21:00 +9°C° 0 mm 2 mps 760 mmHg 84%
    22:00 +8°C° 0 mm 2 mps 760 mmHg 85%
    23:00 +8°C° 0 mm 2 mps 761 mmHg 86%
    Show more